Time,TemperatureF,DewpointF,PressureIn,WindDirection,WindDirectionDegrees,WindSpeedMPH,WindSpeedGustMPH,Humidity,HourlyPrecipIn,Conditions,Clouds,dailyrainin,SoftwareType,DateUTC
2013-04-08 01:52:00,33.0,29.0,29.60,NNE,31,14.0,23.0,86,0.00,,,0.01,,2013-04-08 07:52:00,
2013-04-08 02:02:00,33.0,29.0,29.60,North,5,13.0,20.0,85,0.00,,,0.01,,2013-04-08 08:02:00,
2013-04-08 02:12:00,33.0,29.0,29.60,North,5,13.0,20.0,85,0.00,,,0.01,,2013-04-08 08:12:00,
2013-04-08 02:22:00,33.0,29.0,29.60,North,5,13.0,20.0,85,0.00,,,0.01,,2013-04-08 08:22:00,
2013-04-08 02:32:00,32.0,28.0,29.61,North,5,12.0,18.0,86,0.00,,,0.01,,2013-04-08 08:32:00,
2013-04-08 02:42:00,31.0,27.0,29.61,NNE,21,12.0,22.0,86,0.00,,,0.01,,2013-04-08 08:42:00,
2013-04-08 02:52:00,31.0,27.0,29.61,NNE,21,12.0,22.0,86,0.00,,,0.01,,2013-04-08 08:52:00,
2013-04-08 03:02:00,31.0,27.0,29.61,NNE,21,12.0,22.0,86,0.00,,,0.01,,2013-04-08 09:02:00,
2013-04-08 03:12:00,31.0,27.0,29.61,NNE,21,12.0,22.0,86,0.00,,,0.01,,2013-04-08 09:12:00,
2013-04-08 05:23:00,28.0,26.0,29.65,NNE,16,14.0,22.0,93,0.00,,,0.01,,2013-04-08 11:23:00,
2013-04-08 05:33:00,28.0,26.0,29.65,North,5,14.0,19.0,93,0.00,,,0.01,,2013-04-08 11:33:00,
2013-04-08 05:43:00,28.0,26.0,29.65,North,5,14.0,19.0,93,0.00,,,0.01,,2013-04-08 11:43:00,
2013-04-08 05:52:00,27.0,25.0,29.67,NNE,21,14.0,22.0,93,0.00,,,0.01,,2013-04-08 11:52:00,
2013-04-08 06:03:00,27.0,25.0,29.67,North,5,14.0,23.0,93,0.00,,,0.01,,2013-04-08 12:03:00,
2013-04-08 06:12:00,27.0,25.0,29.67,North,5,14.0,23.0,93,0.00,,,0.01,,2013-04-08 12:12:00,
2013-04-08 06:23:00,27.0,25.0,29.67,North,5,14.0,23.0,93,0.00,,,0.01,,2013-04-08 12:23:00,
2013-04-08 06:33:00,27.0,25.0,29.67,North,5,14.0,23.0,93,0.00,,,0.01,,2013-04-08 12:33:00,
2013-04-08 06:42:00,27.0,25.0,29.67,North,5,14.0,23.0,93,0.00,,,0.01,,2013-04-08 12:42:00,
2013-04-08 08:43:00,23.0,21.0,29.85,NNE,26,11.0,19.0,92,0.00,,,0.01,,2013-04-08 14:43:00,
2013-04-08 08:52:00,23.0,21.0,29.85,NNE,26,11.0,19.0,92,0.00,,,0.01,,2013-04-08 14:52:00,
2013-04-08 09:02:00,22.0,20.0,29.86,North,10,12.0,20.0,92,0.00,,,0.01,,2013-04-08 15:02:00,
2013-04-08 09:12:00,22.0,20.0,29.87,North,5,11.0,20.0,92,0.00,,,0.01,,2013-04-08 15:12:00,
2013-04-08 09:22:00,22.0,20.0,29.87,North,5,11.0,20.0,92,0.00,,,0.01,,2013-04-08 15:22:00,
2013-04-08 09:33:00,22.0,20.0,29.88,North,355,15.0,24.0,91,0.00,,,0.01,,2013-04-08 15:33:00,
2013-04-08 09:43:00,22.0,20.0,29.88,North,355,15.0,24.0,91,0.00,,,0.01,,2013-04-08 15:43:00,
2013-04-08 09:53:00,22.0,20.0,29.88,North,355,15.0,24.0,91,0.00,,,0.01,,2013-04-08 15:53:00,
2013-04-08 10:03:00,22.0,20.0,29.88,North,355,15.0,24.0,91,0.00,,,0.01,,2013-04-08 16:03:00,
2013-04-08 10:13:00,22.0,20.0,29.88,North,355,15.0,24.0,91,0.00,,,0.01,,2013-04-08 16:13:00,
2013-04-08 12:32:00,22.0,18.0,30.00,NNE,24,12.0,23.0,86,0.00,,,0.00,,2013-04-08 18:32:00,
2013-04-08 12:42:00,22.0,18.0,30.01,NNE,17,12.0,19.0,86,0.00,,,0.00,,2013-04-08 18:42:00,
2013-04-08 12:52:00,22.0,18.0,30.01,NNE,17,12.0,19.0,86,0.00,,,0.00,,2013-04-08 18:52:00,
2013-04-08 13:02:00,22.0,18.0,30.02,NNE,19,13.0,21.0,84,0.00,,,0.00,,2013-04-08 19:02:00,
2013-04-08 13:12:00,22.0,18.0,30.02,NNE,19,13.0,21.0,84,0.00,,,0.00,,2013-04-08 19:12:00,
2013-04-08 13:23:00,23.0,19.0,30.02,NE,53,12.0,18.0,85,0.00,,,0.00,,2013-04-08 19:23:00,
2013-04-08 13:33:00,23.0,19.0,30.02,NE,53,12.0,18.0,85,0.00,,,0.00,,2013-04-08 19:33:00,
2013-04-08 13:42:00,23.0,19.0,30.02,NE,53,12.0,18.0,85,0.00,,,0.00,,2013-04-08 19:42:00,
2013-04-08 13:52:00,23.0,19.0,30.02,NE,53,12.0,18.0,85,0.00,,,0.00,,2013-04-08 19:52:00,
2013-04-08 16:03:00,23.0,18.0,30.09,NNE,24,11.0,17.0,81,0.00,,,0.00,,2013-04-08 22:03:00,
2013-04-08 16:13:00,23.0,18.0,30.09,NNE,24,11.0,17.0,81,0.00,,,0.00,,2013-04-08 22:13:00,
2013-04-08 16:23:00,23.0,19.0,30.10,NNE,17,11.0,18.0,83,0.00,,,0.00,,2013-04-08 22:23:00,
2013-04-08 16:32:00,23.0,19.0,30.10,NNE,17,11.0,18.0,83,0.00,,,0.00,,2013-04-08 22:32:00,
2013-04-08 16:43:00,23.0,18.0,30.11,NNE,18,12.0,19.0,82,0.00,,,0.00,,2013-04-08 22:43:00,
2013-04-08 16:53:00,23.0,18.0,30.11,North,11,10.0,18.0,81,0.00,,,0.00,,2013-04-08 22:53:00,
2013-04-08 17:02:00,23.0,18.0,30.11,North,11,10.0,18.0,81,0.00,,,0.00,,2013-04-08 23:02:00,
2013-04-08 17:12:00,23.0,18.0,30.11,North,11,10.0,18.0,81,0.00,,,0.00,,2013-04-08 23:12:00,
2013-04-08 17:22:00,23.0,18.0,30.11,North,11,10.0,18.0,81,0.00,,,0.00,,2013-04-08 23:22:00,
2013-04-08 19:34:00,20.0,14.0,30.21,NNE,20,7.0,15.0,76,0.00,,,0.00,,2013-04-09 01:34:00,
2013-04-08 19:42:00,20.0,14.0,30.22,NE,36,7.0,13.0,76,0.00,,,0.00,,2013-04-09 01:42:00,
2013-04-08 19:52:00,20.0,14.0,30.22,NE,36,7.0,13.0,76,0.00,,,0.00,,2013-04-09 01:52:00,
2013-04-08 20:02:00,19.0,13.0,30.24,NNE,33,7.0,14.0,76,0.00,,,0.00,,2013-04-09 02:02:00,
2013-04-08 20:12:00,19.0,13.0,30.24,NNE,33,7.0,14.0,76,0.00,,,0.00,,2013-04-09 02:12:00,
2013-04-08 20:22:00,19.0,13.0,30.26,NNE,22,6.0,14.0,76,0.00,,,0.00,,2013-04-09 02:22:00,
2013-04-08 20:32:00,19.0,13.0,30.26,NNE,22,6.0,14.0,76,0.00,,,0.00,,2013-04-09 02:32:00,
2013-04-08 20:43:00,19.0,13.0,30.26,NNE,22,6.0,14.0,76,0.00,,,0.00,,2013-04-09 02:43:00,
2013-04-08 20:52:00,19.0,13.0,30.26,NNE,22,6.0,14.0,76,0.00,,,0.00,,2013-04-09 02:52:00,
2013-04-08 23:12:00,16.0,11.0,30.33,NNE,14,3.0,7.0,80,0.00,,,0.00,,2013-04-09 05:12:00,
2013-04-08 23:22:00,16.0,11.0,30.33,NNE,14,3.0,7.0,80,0.00,,,0.00,,2013-04-09 05:22:00,
2013-04-08 23:32:00,16.0,11.0,30.34,NNE,14,2.0,3.0,80,0.00,,,0.00,,2013-04-09 05:32:00,
2013-04-08 23:43:00,15.0,10.0,30.35,NNE,14,0.0,4.0,80,0.00,,,0.00,,2013-04-09 05:43:00,
2013-04-08 23:52:00,15.0,10.0,30.35,NNE,14,0.0,4.0,80,0.00,,,0.00,,2013-04-09 05:52:00,